This demonstration page uses our WeatherBlox Daily Observations layout. Learn more.

Left ArrowRight Arrow

Hourly Observations for July 9, 2022

Temp ( °F °C ) Dew Point ( °F °C ) Humidity (%) Winds ( mph kmh ) Pressure ( in mb ) Visibility ( mi km ) Precip ( " mm )
12:53 am 00:53 Clear 54 12.2 43 6.1 67 67 ESE 5 7 30.12 1020 10 16 0.00 0.00
1:53 am 01:53 Clear 53 11.7 43 6.1 69 69 Calm 30.11 1020 10 16 0.00 0.00
2:53 am 02:53 Clear 49 9.4 42 5.6 77 77 Calm 30.13 1020 10 16 0.00 0.00
3:53 am 03:53 Clear 47 8.3 38 3.3 71 71 S 3 6 30.14 1021 10 16 0.00 0.00
4:53 am 04:53 Clear 46 7.8 39 3.9 77 77 Calm 30.15 1021 10 16 0.00 0.00
5:53 am 05:53 Sunny 43 6.1 37 2.8 80 80 WSW 3 6 30.18 1022 10 16 0.00 0.00
6:53 am 06:53 Sunny 51 10.6 44 6.7 77 77 Calm 30.18 1022 10 16 0.00 0.00
7:53 am 07:53 Sunny 61 16.1 45 7.2 56 56 Calm 30.17 1022 10 16 0.00 0.00
8:53 am 08:53 Sunny 73 22.8 44 6.7 35 35 Calm 30.15 1021 10 16 0.00 0.00
9:53 am 09:53 Sunny 80 26.7 44 6.7 28 28 NNE 7 11 30.15 1021 10 16 0.00 0.00
10:53 am 10:53 Sunny 86 30 38 3.3 18 18 ENE 6 9 30.15 1021 10 16 0.00 0.00
11:53 am 11:53 Sunny 89 31.7 38 3.3 16 16 NW 7 11 30.14 1021 10 16 0.00 0.00
12:53 pm 12:53 Sunny 93 33.9 34 1.1 12 12 W 8 13 30.12 1020 10 16 0.00 0.00
1:53 pm 13:53 Sunny 94 34.4 32 0 11 11 W 18 30 30.10 1019 10 16 0.00 0.00
2:53 pm 14:53 Sunny 96 35.6 34 1.1 11 11 W 20 31 30.09 1019 10 16 0.00 0.00
3:53 pm 15:53 Sunny 95 35 35 1.7 12 12 SW 8 13 30.09 1019 10 16 0.00 0.00
4:53 pm 16:53 Sunny 89 31.7 36 2.2 15 15 S 9 15 30.09 1019 10 16 0.00 0.00
5:53 pm 17:53 Sunny 92 33.3 36 2.2 14 14 S 18 30 30.07 1018 10 16 0.00 0.00
6:53 pm 18:53 Sunny 86 30 37 2.8 18 18 SSE 12 19 30.06 1018 10 16 0.00 0.00
7:53 pm 19:53 Sunny 82 27.8 38 3.3 21 21 S 9 15 30.03 1017 10 16 0.00 0.00
8:53 pm 20:53 Clear 75 23.9 38 3.3 26 26 S 12 19 30.02 1017 10 16 0.00 0.00
9:53 pm 21:53 Clear 70 21.1 40 4.4 34 34 NW 7 11 30.03 1017 10 16 0.00 0.00
10:53 pm 22:53 Clear 65 18.3 40 4.4 40 40 VRB 3 6 30.04 1017 10 16 0.00 0.00
11:53 pm 23:53 Clear 59 15 41 5 51 51 Calm 30.05 1018 10 16 0.00 0.00

Powered by AerisWeather